Location: Kawakawa
(35.3830°S, 174.0670°E)
Time: 05:50:59
(UTC+13:00)

Explorer 7 - Pass Details

Date: 14 December 2019
Orbit: 485 x 679 km, 50.3° (Epoch: 21 January)

Event Time Altitude Azimuth Distance (km) Brightness Sun altitude
Rises 11:36:48 0° 244° (WSW) 2,613 10.0 64.9°
Reaches altitude 10° 11:39:16 10° 258° (WSW) 1,744 9.2 65.4°
Maximum altitude 11:42:27 23° 312° (NW) 1,146 8.6 65.9°
Drops below altitude 10° 11:45:43 10° 5° (N) 1,806 9.8 66.6°
Sets 11:48:20 0° 19° (NNE) 2,730 10.6 67.0°
